Total_Precipitation_Accumulation
1.40 1.38 1.36 1.32 1.32 1.36 1.38 1.33 1.26 1.18 1.08 1.05 0.95 0.88 0.85 0.88 0.93 0.98 1.02 1.06 1.10 1.15 1.23 1.26 1.28 1.27 1.33 1.38 1.41 1.47 1.60 1.70 1.73 1.54 1.34 1.27 1.23 1.13 1.09 1.08 1.05 0.97 0.89
1.16 1.06 1.07 1.05 1.04 1.09 1.12 1.04 1.00 0.98 0.92 0.85 0.74 0.71 0.70 0.73 0.78 0.81 0.85 0.88 0.98 1.00 1.01 1.04 1.06 1.08 1.13 1.16 1.20 1.23 1.32 1.45 1.52 1.52 1.41 1.33 1.26 1.16 1.11 1.13 0.94 0.78 0.78
1.00 0.94 0.92 0.91 0.93 0.94 0.96 0.92 0.86 0.86 0.84 0.77 0.67 0.65 0.63 0.63 0.64 0.66 0.70 0.70 0.76 0.83 0.86 0.91 0.93 0.95 0.93 0.90 0.96 1.04 1.12 1.20 1.37 1.38 1.31 1.22 1.12 1.05 1.12 1.03 0.94 1.00 0.76
0.88 0.84 0.83 0.81 0.80 0.81 0.85 0.90 0.85 0.75 0.70 0.67 0.64 0.60 0.59 0.56 0.55 0.54 0.51 0.54 0.59 0.65 0.68 0.74 0.77 0.82 0.83 0.83 0.86 0.99 1.06 1.18 1.27 1.27 1.22 1.16 1.08 1.01 1.12 1.13 1.09 1.04 0.87
0.85 0.82 0.79 0.74 0.71 0.70 0.73 0.76 0.76 0.71 0.62 0.59 0.56 0.54 0.49 0.44 0.40 0.39 0.42 0.48 0.56 0.57 0.60 0.60 0.60 0.67 0.77 0.77 0.77 0.86 0.97 1.12 1.14 1.15 1.15 1.12 1.06 1.08 1.09 1.05 1.09 1.06 0.94
0.92 0.90 0.84 0.79 0.73 0.72 0.69 0.71 0.69 0.62 0.58 0.54 0.51 0.48 0.43 0.33 0.32 0.32 0.34 0.44 0.54 0.58 0.58 0.56 0.53 0.52 0.56 0.62 0.64 0.72 0.84 0.95 1.03 1.08 1.09 1.09 1.06 1.12 1.15 1.11 1.14 1.17 1.12
0.86 0.83 0.82 0.78 0.74 0.70 0.63 0.59 0.60 0.63 0.60 0.53 0.49 0.48 0.49 0.41 0.27 0.23 0.26 0.38 0.54 0.55 0.55 0.59 0.54 0.50 0.57 0.62 0.62 0.61 0.65 0.66 0.76 0.94 1.07 1.12 1.18 1.27 1.34 1.30 1.27 1.26 1.25
0.77 0.75 0.71 0.67 0.67 0.68 0.62 0.59 0.60 0.61 0.58 0.55 0.52 0.53 0.57 0.44 0.28 0.20 0.24 0.38 0.49 0.45 0.47 0.55 0.63 0.65 0.59 0.58 0.61 0.66 0.70 0.69 0.70 0.74 0.95 1.04 1.04 1.14 1.26 1.30 1.31 1.26 1.25
0.74 0.72 0.64 0.56 0.61 0.65 0.62 0.61 0.64 0.61 0.60 0.58 0.56 0.60 0.63 0.50 0.33 0.26 0.29 0.40 0.47 0.46 0.48 0.46 0.48 0.56 0.55 0.59 0.66 0.81 0.85 0.85 0.67 0.71 0.81 0.88 0.90 0.96 1.02 1.14 1.30 1.41 1.39
0.71 0.67 0.60 0.58 0.61 0.64 0.67 0.65 0.59 0.59 0.57 0.51 0.54 0.62 0.62 0.54 0.37 0.29 0.31 0.36 0.45 0.55 0.60 0.59 0.54 0.52 0.51 0.57 0.70 0.84 0.91 0.91 0.91 1.04 1.15 1.14 1.08 1.06 1.01 1.14 1.37 1.46 1.45
0.59 0.58 0.60 0.61 0.57 0.55 0.58 0.61 0.58 0.52 0.54 0.53 0.54 0.57 0.61 0.48 0.35 0.31 0.36 0.42 0.48 0.56 0.63 0.69 0.64 0.56 0.53 0.54 0.59 0.72 0.83 0.83 1.00 1.33 1.37 1.24 1.13 1.12 1.07 1.08 1.22 1.35 1.42
0.64 0.64 0.61 0.57 0.46 0.44 0.54 0.58 0.54 0.53 0.55 0.58 0.59 0.63 0.59 0.46 0.35 0.31 0.34 0.38 0.40 0.50 0.64 0.63 0.60 0.56 0.51 0.53 0.56 0.66 0.76 0.89 1.13 1.42 1.40 1.21 1.06 1.01 0.98 0.92 0.98 1.09 1.22
0.68 0.64 0.59 0.50 0.44 0.43 0.49 0.51 0.49 0.49 0.46 0.45 0.48 0.53 0.50 0.41 0.36 0.28 0.29 0.31 0.32 0.39 0.51 0.52 0.50 0.50 0.53 0.65 0.69 0.74 0.87 1.07 1.25 1.35 1.28 1.08 0.95 0.90 0.86 0.85 0.83 0.93 0.98
0.70 0.61 0.53 0.47 0.40 0.37 0.38 0.36 0.37 0.38 0.38 0.38 0.38 0.40 0.38 0.34 0.27 0.24 0.26 0.29 0.30 0.33 0.41 0.51 0.60 0.65 0.73 0.87 0.97 1.05 1.08 1.11 1.12 1.15 1.09 0.97 0.86 0.84 0.83 0.76 0.78 0.84 0.94
0.67 0.55 0.48 0.40 0.34 0.33 0.29 0.23 0.22 0.23 0.23 0.26 0.24 0.22 0.24 0.24 0.18 0.19 0.23 0.26 0.27 0.30 0.35 0.51 0.73 0.85 0.93 0.97 1.02 1.08 1.07 0.99 0.94 0.90 0.88 0.86 0.85 0.84 0.81 0.71 0.73 0.76 0.86
0.53 0.46 0.38 0.32 0.30 0.25 0.23 0.21 0.15 0.14 0.15 0.16 0.18 0.17 0.14 0.15 0.15 0.15 0.18 0.20 0.22 0.27 0.35 0.56 0.75 0.84 0.89 0.93 0.95 0.94 0.90 0.86 0.80 0.78 0.78 0.73 0.71 0.72 0.74 0.72 0.72 0.76 0.84
0.43 0.36 0.29 0.25 0.24 0.22 0.24 0.31 0.32 0.23 0.17 0.17 0.17 0.16 0.15 0.14 0.13 0.12 0.12 0.14 0.17 0.25 0.37 0.58 0.70 0.76 0.83 0.88 0.85 0.82 0.81 0.78 0.72 0.68 0.68 0.66 0.59 0.59 0.66 0.71 0.72 0.77 0.80
0.34 0.27 0.26 0.26 0.23 0.22 0.22 0.25 0.29 0.36 0.36 0.28 0.17 0.15 0.13 0.13 0.12 0.11 0.12 0.14 0.23 0.30 0.45 0.60 0.65 0.67 0.71 0.74 0.72 0.71 0.72 0.69 0.65 0.64 0.64 0.63 0.61 0.57 0.61 0.67 0.69 0.68 0.72
0.30 0.28 0.26 0.26 0.23 0.21 0.20 0.19 0.20 0.26 0.32 0.32 0.25 0.18 0.15 0.18 0.19 0.20 0.20 0.22 0.30 0.36 0.43 0.49 0.55 0.60 0.64 0.65 0.64 0.60 0.60 0.60 0.59 0.59 0.59 0.58 0.59 0.59 0.58 0.57 0.57 0.51 0.55
0.30 0.25 0.24 0.24 0.22 0.19 0.17 0.17 0.18 0.23 0.27 0.28 0.25 0.20 0.21 0.29 0.33 0.31 0.27 0.25 0.27 0.31 0.36 0.44 0.49 0.51 0.52 0.52 0.50 0.46 0.45 0.47 0.48 0.47 0.49 0.52 0.54 0.54 0.54 0.52 0.50 0.48 0.50
0.27 0.24 0.21 0.19 0.18 0.16 0.14 0.14 0.17 0.22 0.22 0.23 0.20 0.20 0.26 0.31 0.37 0.36 0.34 0.31 0.30 0.31 0.33 0.37 0.40 0.41 0.38 0.36 0.37 0.37 0.35 0.36 0.38 0.42 0.43 0.44 0.43 0.40 0.37 0.34 0.32 0.32 0.36
0.25 0.21 0.18 0.17 0.15 0.14 0.15 0.16 0.17 0.17 0.17 0.19 0.18 0.17 0.24 0.26 0.30 0.31 0.33 0.34 0.33 0.32 0.34 0.37 0.37 0.35 0.33 0.34 0.37 0.36 0.32 0.30 0.30 0.36 0.38 0.36 0.33 0.30 0.28 0.27 0.25 0.25 0.28
0.20 0.18 0.16 0.15 0.16 0.17 0.18 0.19 0.19 0.18 0.19 0.19 0.16 0.16 0.20 0.23 0.25 0.28 0.31 0.31 0.29 0.29 0.30 0.32 0.34 0.34 0.33 0.32 0.33 0.30 0.28 0.28 0.28 0.31 0.37 0.36 0.32 0.27 0.25 0.25 0.24 0.24 0.25
0.16 0.15 0.15 0.14 0.17 0.21 0.20 0.17 0.17 0.18 0.17 0.16 0.15 0.16 0.18 0.20 0.22 0.26 0.30 0.31 0.32 0.32 0.31 0.31 0.33 0.33 0.32 0.33 0.31 0.26 0.22 0.23 0.24 0.27 0.33 0.33 0.27 0.24 0.25 0.26 0.25 0.26 0.27
0.14 0.15 0.15 0.13 0.16 0.20 0.20 0.18 0.17 0.16 0.16 0.14 0.14 0.15 0.18 0.17 0.17 0.20 0.26 0.30 0.32 0.32 0.31 0.28 0.27 0.26 0.27 0.25 0.23 0.22 0.24 0.24 0.22 0.23 0.28 0.30 0.26 0.24 0.25 0.24 0.24 0.24 0.26
0.13 0.15 0.16 0.16 0.18 0.19 0.21 0.21 0.21 0.19 0.18 0.17 0.15 0.15 0.15 0.16 0.17 0.18 0.21 0.24 0.25 0.27 0.28 0.30 0.28 0.25 0.22 0.17 0.18 0.21 0.22 0.18 0.16 0.17 0.22 0.27 0.25 0.23 0.23 0.24 0.22 0.24 0.26